AV279 Weather Reports


time (UTC)temp
C
wind
direction
speed
KPH
gust
KPH
rain 1hr
cm
rain 24hr
cm
rain mn
cm
humidity
%
barometer
mb
20260507122918 13 315 4.8 8.0 0.00 0.00 0.00 77 1015.7
20260507121940 13 0 3.2 8.0 0.00 0.00 0.00 76 1015.7
20260507120950 13 180 1.6 3.2 0.00 0.00 0.00 75 1015.6
20260507115950 13 23 1.6 4.8 0.00 0.00 0.00 75 1015.6
20260507114918 14 270 1.6 3.2 0.00 0.00 0.00 74 1015.6
20260507113918 14 338 3.2 6.4 0.00 0.00 0.00 73 1015.5
20260507112940 15 68 1.6 3.2 0.00 0.00 0.00 72 1015.6
20260507111918 15 270 3.2 4.8 0.00 0.00 0.00 70 1015.6
20260507110949 15 0.0 1.6 0.00 0.00 0.00 72 1015.7
20260507105918 14 0.0 1.6 0.00 0.00 0.00 73 1015.6
20260507104931 13 0.0 1.6 0.00 0.00 0.00 73 1015.8
20260507103918 14 338 3.2 6.4 0.00 0.00 0.00 73 1015.8
20260507102929 14 23 3.2 4.8 0.00 0.00 0.00 75 1015.9
20260507101929 13 293 3.2 4.8 0.00 0.00 0.00 75 1015.8
20260507100918 13 135 3.2 4.8 0.00 0.00 0.00 77 1015.8
20260507095940 13 315 1.6 3.2 0.00 0.00 0.00 78 1015.6
20260507094920 13 23 3.2 6.4 0.00 0.00 0.00 77 1015.6
20260507093929 13 0 1.6 4.8 0.00 0.00 0.00 78 1015.6
20260507092929 13 0.0 1.6 0.00 0.00 0.00 79 1015.5
20260507091918 13 0.0 1.6 0.00 0.00 0.00 79 1015.4
20260507090941 12 0.0 1.6 0.00 0.00 0.00 81 1015.3
20260507085918 12 0.0 1.6 0.00 0.00 0.00 80 1015.3
20260507084920 12 338 1.6 3.2 0.00 0.00 0.00 80 1015.4
20260507084010 12 0.0 1.6 0.00 0.00 0.00 81 1015.4
20260507082940 12 0 1.6 3.2 0.00 0.00 0.00 81 1015.3
20260507081920 12 113 1.6 4.8 0.00 0.00 0.00 81 1015.0
20260507080920 11 0.0 1.6 0.00 0.00 0.00 81 1015.1
20260507075918 12 68 4.8 6.4 0.00 0.00 0.00 81 1015.0
20260507074920 11 0 4.8 6.4 0.00 0.00 0.00 82 1015.1
20260507073920 11 315 3.2 4.8 0.00 0.00 0.00 82 1015.0
20260507072931 11 45 4.8 6.4 0.00 0.00 0.00 82 1015.0
20260507071920 11 338 3.2 6.4 0.00 0.00 0.00 82 1014.9
20260507070929 11 23 1.6 3.2 0.00 0.00 0.00 83 1014.8
20260507065931 11 315 1.6 4.8 0.00 0.00 0.00 83 1014.8
20260507064920 11 0 1.6 4.8 0.00 0.00 0.00 84 1014.6
20260507063920 10 23 1.6 3.2 0.00 0.00 0.00 86 1014.6
20260507063011 10 45 3.2 4.8 0.00 0.00 0.00 87 1014.7
20260507061931 10 0.0 0.0 0.00 0.00 0.00 88 1014.7
20260507060920 10 0.0 0.0 0.00 0.00 0.00 88 1014.7
20260507055930 10 0.0 0.0 0.00 0.00 0.00 88 1014.7
20260507054920 10 0.0 0.0 0.00 0.00 0.00 88 1014.5
20260507053930 10 0.0 0.0 0.00 0.00 0.00 88 1014.3
20260507052920 10 0.0 0.0 0.00 0.00 0.00 88 1014.3
20260507052225 10 0.0 0.0 0.00 0.00 0.00 88 1014.2
20260507051520 10 0.0 1.6 0.00 0.00 0.00 88 1014.2
20260507050530 10 225 1.6 1.6 0.00 0.00 0.00 89 1014.1
20260507045520 10 0.0 0.0 0.00 0.00 0.00 89 1013.8
20260507044530 10 0.0 0.0 0.00 0.00 0.00 89 1013.8
20260507043530 10 0.0 0.0 0.00 0.00 0.00 89 1013.7
20260507042520 10 0.0 0.0 0.00 0.00 0.00 89 1013.8
20260507041519 10 0.0 0.0 0.00 0.00 0.00 89 1013.7
20260507040540 10 0.0 0.0 0.00 0.00 0.00 89 1013.7
20260507035520 9 0.0 0.0 0.00 0.00 0.00 89 1013.7
20260507034530 9 0.0 0.0 0.00 0.00 0.00 88 1013.6
20260507033541 9 0.0 0.0 0.00 0.00 0.00 88 1013.4
20260507032539 9 0.0 0.0 0.00 0.00 0.00 88 1013.5
20260507031540 9 0.0 0.0 0.00 0.00 0.00 88 1013.5
20260507030520 9 0.0 0.0 0.00 0.00 0.00 88 1013.5
20260507025530 9 0.0 0.0 0.00 0.00 0.00 87 1013.4
20260507024530 9 0.0 1.6 0.00 0.00 0.00 87 1013.4
20260507023530 9 0.0 1.6 0.00 0.00 0.00 87 1013.4
20260507022519 9 0.0 0.0 0.00 0.00 0.00 87 1013.4
20260507021519 10 338 1.6 3.2 0.00 0.00 0.00 87 1013.3
20260507020530 10 0.0 0.0 0.00 0.00 0.00 87 1013.3
20260507015550 10 0.0 0.0 0.00 0.00 0.00 86 1013.2
20260507014519 10 0 1.6 3.2 0.00 0.00 0.00 86 1013.2
20260507013530 10 0.0 0.0 0.00 0.00 0.00 86 1013.2
20260507012519 10 0.0 1.6 0.00 0.00 0.00 86 1013.3
20260507011550 10 0.0 0.0 0.00 0.00 0.00 85 1013.2
20260507010530 10 0.0 1.6 0.00 0.00 0.00 85 1013.2
20260507005550 10 338 3.2 6.4 0.00 0.00 0.00 85 1013.2
20260507004519 10 0 3.2 6.4 0.00 0.00 0.00 85 1013.2
20260507003519 10 23 3.2 4.8 0.00 0.00 0.00 85 1013.3
20260507002540 10 315 1.6 4.8 0.00 0.00 0.00 84 1013.2
20260507001519 10 23 4.8 14.5 0.00 0.00 0.00 84 1013.2
20260507000539 10 45 3.2 8.0 0.00 0.00 0.00 84 1013.2
20260506235520 10 45 4.8 9.7 0.00 0.00 0.00 84 1013.2
20260506234520 10 0 8.0 14.5 0.00 0.00 0.00 84 1013.0
20260506233520 10 23 6.4 12.9 0.00 0.00 0.00 84 1013.1
20260506232520 11 23 4.8 9.7 0.00 0.00 0.00 84 1013.0
20260506231550 11 45 3.2 6.4 0.00 0.00 0.00 84 1013.1
20260506230519 10 0 6.4 14.5 0.00 0.00 0.00 84 1013.0
20260506225520 10 338 4.8 12.9 0.00 0.00 0.00 84 1012.9
20260506224520 10 0 8.0 12.9 0.00 0.00 0.00 84 1013.0
20260506223519 10 23 4.8 8.0 0.00 0.00 0.00 84 1013.0
20260506222519 10 0 4.8 11.3 0.00 0.00 0.00 84 1012.8
20260506221530 10 0 4.8 9.7 0.00 0.00 0.00 85 1012.8
20260506220519 10 338 3.2 8.0 0.00 0.00 0.00 85 1012.8
20260506215519 10 23 4.8 9.7 0.00 0.00 0.00 85 1012.7
20260506214530 9 45 4.8 9.7 0.00 0.00 0.00 85 1012.7
20260506213530 9 338 1.6 3.2 0.00 0.00 0.00 85 1012.8
20260506212519 9 0 3.2 8.0 0.00 0.00 0.00 84 1012.7
20260506211551 9 23 3.2 6.4 0.00 0.00 0.00 84 1012.6
20260506210530 9 315 3.2 6.4 0.00 0.00 0.00 83 1012.7
20260506205520 9 0.0 4.8 0.00 0.00 0.00 83 1012.7
20260506204519 9 315 1.6 4.8 0.00 0.00 0.00 83 1012.7
20260506203519 9 45 6.4 12.9 0.00 0.00 0.00 82 1012.7
20260506202519 9 23 4.8 12.9 0.00 0.00 0.00 82 1012.6
20260506201530 10 338 3.2 6.4 0.00 0.00 0.00 81 1012.6
20260506200520 10 0 4.8 8.0 0.00 0.00 0.00 80 1012.5
20260506195520 10 23 4.8 8.0 0.00 0.00 0.00 80 1012.4
20260506194519 10 23 6.4 11.3 0.00 0.00 0.00 79 1012.2
20260506193519 10 0 6.4 12.9 0.00 0.00 0.00 79 1012.2
20260506192551 10 23 8.0 9.7 0.00 0.00 0.00 79 1012.1
20260506191530 11 23 3.2 4.8 0.00 0.00 0.00 79 1012.1
20260506190600 11 23 9.7 14.5 0.00 0.00 0.00 78 1012.0
20260506185530 11 23 8.0 14.5 0.00 0.00 0.00 78 1011.9
20260506184530 11 315 9.7 17.7 0.00 0.00 0.00 77 1011.9
20260506183519 11 0 6.4 12.9 0.00 0.00 0.00 77 1011.8
20260506182519 11 315 6.4 9.7 0.00 0.00 0.00 77 1011.9
20260506181551 11 0 4.8 17.7 0.00 0.00 0.00 77 1011.7
20260506180519 12 315 6.4 11.3 0.00 0.00 0.00 76 1011.6
20260506175540 12 23 8.0 17.7 0.00 0.00 0.00 76 1011.5
20260506174530 12 23 6.4 14.5 0.00 0.00 0.00 75 1011.4
20260506173519 12 0 4.8 12.9 0.00 0.00 0.00 74 1011.2
20260506172540 12 23 9.7 17.7 0.00 0.00 0.00 74 1011.3
20260506171519 12 293 3.2 4.8 0.00 0.00 0.00 75 1011.2
20260506170519 12 0 4.8 12.9 0.00 0.00 0.00 75 1011.1
20260506165519 12 338 8.0 19.3 0.00 0.00 0.00 75 1010.9
20260506164550 12 23 6.4 12.9 0.00 0.00 0.00 74 1011.0
20260506163549 12 338 9.7 19.3 0.00 0.00 0.00 74 1010.8
20260506162519 13 23 4.8 8.0 0.00 0.00 0.00 74 1010.7
20260506161519 13 23 8.0 17.7 0.00 0.00 0.00 74 1010.6
20260506160519 13 0 4.8 12.9 0.00 0.00 0.00 74 1010.7
20260506155539 13 0 9.7 19.3 0.00 0.00 0.00 74 1010.7
20260506154519 13 113 4.8 12.9 0.00 0.00 0.00 73 1010.6
20260506153551 13 0 14.5 19.3 0.00 0.00 0.00 72 1010.6
20260506152529 13 0 11.3 17.7 0.00 0.00 0.00 71 1010.7
20260506151529 14 45 6.4 12.9 0.00 0.00 0.00 72 1010.6
20260506150518 14 0 8.0 19.3 0.00 0.00 0.00 72 1010.6
20260506145620 13 338 11.3 22.5 0.00 0.00 0.00 71 1010.6
20260506144530 13 0 6.4 14.5 0.00 0.00 0.00 71 1010.6
20260506143530 13 45 6.4 11.3 0.00 0.00 0.00 71 1010.6
20260506142559 13 23 17.7 25.7 0.00 0.00 0.00 70 1010.6
20260506141539 13 315 8.0 14.5 0.00 0.00 0.00 69 1010.6
20260506140529 13 23 9.7 17.7 0.00 0.00 0.00 68 1010.6
20260506135551 13 23 12.9 22.5 0.00 0.00 0.00 69 1010.6
20260506134551 13 0 9.7 17.7 0.00 0.00 0.00 70 1010.5
20260506133518 14 23 11.3 19.3 0.00 0.00 0.00 68 1010.4
20260506132519 15 338 11.3 25.7 0.00 0.00 0.00 66 1010.6
20260506131519 15 0 14.5 20.9 0.00 0.00 0.00 63 1010.5
20260506130519 15 0 8.0 17.7 0.00 0.00 0.00 64 1010.5
20260506125529 15 23 11.3 19.3 0.00 0.00 0.00 64 1010.5
20260506124539 15 0 8.0 17.7 0.00 0.00 0.00 67 1010.3